Location: Unspecified
(0.0000°N, 0.0000°E)
Time: 18:22:02
(UTC+02:00)

ISS - Visible Passes

Search period start: 18 August 2017 00:00
Search period end: 28 August 2017 00:00
Orbit: 401 x 408 km, 51.6° (Epoch: 19 August)

Date Brightness Start Highest point End Pass type
(mag) Time Alt. Az. Time Alt. Az. Time Alt. Az.
18 Aug -1.5 21:45:16 10° NNW 21:46:25 20° NNW 21:46:25 20° NNW visible
19 Aug -2.5 20:53:38 10° N 20:56:17 23° NE 20:57:04 21° ENE visible
20 Aug -1.9 21:37:35 10° WNW 21:40:20 25° SW 21:40:30 25° SW visible
21 Aug -3.8 20:44:53 10° NW 20:48:07 77° SW 20:51:17 10° SSE visible
23 Aug -1.3 07:27:16 10° S 07:29:49 21° SE 07:32:22 10° ENE visible
23 Aug -1.1 20:37:35 10° W 20:39:54 18° SW 20:42:14 10° S visible
25 Aug -3.9 07:18:16 10° SW 07:21:33 89° SE 07:24:50 10° NE visible
26 Aug -2.1 06:28:51 27° SE 06:29:17 29° SE 06:32:11 10° ENE visible
27 Aug -2.3 07:12:18 19° W 07:13:15 21° NW 07:15:49 10° N visible
